sat.trackr.live / text

‹ back to catalog

STARLINK-30561

NORAD 58032 · 2023-156E

PAYLOAD ACTIVE UNKNOWN

§ Identity

Operator
Country
US
Launch date
2023-10-09
Launch site
AFWTR
Launch vehicle
Mass (kg)
RCS (m²)

Purposes: comms

External: N2YO · Heavens-Above · Gunter

§ Orbital elements

Epoch: 2026-09-20T11:15:29.212704Z

Period
93.85 min
Inclination
53.1561°
Eccentricity
0.0001154
Mean motion
15.34396739 rev/d
Perigee alt
461.9 km
Apogee alt
463.5 km
Semi-major
6,840.8 km
B*
8.0500e-5
RAAN
251.6214°
Arg perigee
91.7874°
Mean anomaly
268.3261°
Rev number
16,616

§ Raw data

STARLINK-305611 58032U 23156E   26263.46908811  .00002344  00000+0  80500-4 0  99902 58032  53.1561 251.6214 0001154  91.7874 268.3261 15.34396739166167

JSON: /api/v1/satellites/58032 · /tle

For live sub-satellite position, see the globe view (requires WebGL).

§ Visibility from observer

Set your observer location to see the next 7 days of passes ≥ 10°. The values pass through the URL so the page stays shareable.

No JS? Fill the form by hand. The geolocation button needs JavaScript.